Torna al catalogo

USA 3

AttivoMilitarePO
NORAD 15071·PAYLOAD·🇺🇸 United States

Lanciato Jun 25, 1984 da Vandenberg Space Force Base

Loading…

Prossimi Passaggi (prossime 24 ore)

TLE

AggiornatoSource: Space-Track

Epoca: Sep 14, 2026, 00:33 UTC

1 15071U 84065C   26257.02307294  .00003527  00000-0  19209-3 0  9997
2 15071  95.8702 106.0089 0004870  35.3408 324.8150 15.14832622128562

Traccia USA 3 in tempo reale con AllMySat

Download on the App Store